Worthington, MN

9:24 PM CST on December 10, 2019 (GMT -0600)
Worthington Municipal

Weather History for KOTG - October, 2019

Change the Weather History Date:

Sunday, October 20, 2019

  Actual Average Record
Temperature  
Mean Temperature 48 °F -  
Max Temperature 61 °F 54 °F 77 °F (2017)
Min Temperature 35 °F 35 °F 15 °F (1972)
Degree Days  
Heating Degree Days 17    
Moisture  
Dew Point 38 °F    
Average Humidity 65    
Maximum Humidity 89    
Minimum Humidity 44    
Precipitation  
Precipitation 0.03 in - - ()
Sea Level Pressure  
Sea Level Pressure 29.76 in    
Wind  
Wind Speed 8 mph (SE)    
Max Wind Speed 20 mph    
Max Gust Speed 28 mph    
Visibility 10 miles    
Events Rain    
Averages and records for this station are not official NWS values.
T = Trace of Precipitation, MM = Missing Value Source: NWS Daily Summary

Daily Weather History Graph

Daily Weather History Graph

Search for Another Location

Airport or City:

Astronomy

Oct. 20, 2019 Rise Set
Actual Time 7:42 AM CDT 6:31 PM CDT
Civil Twilight 7:13 AM CDT 7:00 PM CDT
Nautical Twilight 6:39 AM CDT 7:33 PM CDT
Astronomical Twilight 6:06 AM CDT 8:06 PM CDT
Moon 11:33 PM CDT (10/20) 2:18 PM CDT (10/20)
Length of Visible Light 11h 46m
Length of Day
10h 48m
Waning Gibbous, 59% of the Moon is Illuminated
Oct 20
Waning Gibbous
Oct 21
Last Quarter
Oct 27
New
Nov 4
First Quarter
Nov 12
Full

Hourly Weather History & Observations

Time (CDT) Temp. Windchill Dew Point Humidity Pressure Visibility Wind Dir Wind Speed Gust Speed Precip Events Conditions
12:56 AM 41.0 °F 39.0 °F 33.1 °F 73% 29.78 in 10.0 mi ESE 3.5 mph - N/A   Clear
1:56 AM 42.1 °F 37.1 °F 35.1 °F 76% 29.78 in 10.0 mi South 8.1 mph - N/A   Mostly Cloudy
2:56 AM 42.1 °F 40.2 °F 34.0 °F 73% 29.79 in 10.0 mi South 3.5 mph - N/A   Clear
3:56 AM 39.9 °F - 33.1 °F 77% 29.79 in 10.0 mi Calm Calm - N/A   Clear
4:56 AM 37.9 °F - 33.1 °F 83% 29.80 in 10.0 mi Calm Calm - N/A   Clear
5:56 AM 37.0 °F 34.5 °F 32.0 °F 82% 29.81 in 10.0 mi ESE 3.5 mph - N/A   Clear
6:56 AM 35.1 °F 31.0 °F 32.0 °F 89% 29.81 in 10.0 mi ESE 4.6 mph - N/A   Clear
7:56 AM 36.0 °F 31.1 °F 32.0 °F 86% 29.82 in 10.0 mi ESE 5.8 mph - N/A   Clear
8:56 AM 43.0 °F 39.5 °F 37.9 °F 82% 29.82 in 10.0 mi ESE 5.8 mph - N/A   Clear
9:56 AM 51.1 °F - 39.9 °F 66% 29.82 in 10.0 mi SSE 6.9 mph - N/A   Clear
10:56 AM 55.9 °F - 41.0 °F 57% 29.83 in 10.0 mi South 11.5 mph 19.6 mph N/A   Clear
11:56 AM 59.0 °F - 39.9 °F 49% 29.82 in 10.0 mi South 13.8 mph 19.6 mph N/A   Clear
12:56 PM 57.9 °F - 39.9 °F 51% 29.80 in 10.0 mi SSE 12.7 mph 19.6 mph N/A   Mostly Cloudy
1:56 PM 60.1 °F - 37.9 °F 44% 29.78 in 10.0 mi SSE 15.0 mph 23.0 mph N/A   Mostly Cloudy
2:56 PM 61.0 °F - 39.0 °F 44% 29.78 in 10.0 mi SSE 13.8 mph 21.9 mph N/A   Partly Cloudy
3:56 PM 60.1 °F - 39.0 °F 46% 29.75 in 10.0 mi SE 15.0 mph 21.9 mph N/A   Clear
4:56 PM 59.0 °F - 39.0 °F 48% 29.73 in 9.0 mi SE 12.7 mph 23.0 mph N/A   Scattered Clouds
5:56 PM 57.0 °F - 39.9 °F 53% 29.71 in 10.0 mi ESE 16.1 mph - N/A   Overcast
6:56 PM 55.9 °F - 41.0 °F 57% 29.69 in 10.0 mi ESE 16.1 mph - N/A   Overcast
7:56 PM 55.9 °F - 41.0 °F 57% 29.69 in 10.0 mi SE 18.4 mph 25.3 mph N/A   Overcast
8:56 PM 55.9 °F - 39.9 °F 55% 29.66 in 10.0 mi ESE 19.6 mph 27.6 mph N/A   Overcast
9:56 PM 55.0 °F - 39.0 °F 55% 29.67 in 10.0 mi SE 17.3 mph 25.3 mph 0.00 in Rain Light Rain
10:56 PM 51.1 °F - 42.1 °F 71% 29.68 in 10.0 mi SSE 12.7 mph - 0.00 in Rain Light Rain
11:56 PM 50.0 °F - 45.0 °F 83% 29.60 in 10.0 mi ESE 16.1 mph - 0.03 in   Overcast